This demonstration page uses our WeatherBlox Daily Observations layout. Learn more.

Left ArrowRight Arrow

34.16533, -84.80231

Hourly Observations for April 14, 2022

Temp ( °F °C ) Dew Point ( °F °C ) Humidity (%) Winds ( mph kmh ) Pressure ( in mb ) Visibility ( mi km ) Precip ( " mm )
12:15 am 00:15 Cloudy 70 21 61 16 73 73 SE 7 11 29.96 1015 10 16 0.00 0.00
12:35 am 00:35 Cloudy 70 21 59 15 69 69 S 10 17 29.98 1015 10 16 0.00 0.00
12:55 am 00:55 Cloudy 70 21 59 15 69 69 SSE 7 11 29.97 1015 10 16 0.00 0.00
1:15 am 01:15 Cloudy 70 21 59 15 69 69 S 7 11 29.97 1015 10 16 0.00 0.00
1:35 am 01:35 Cloudy 70 21 59 15 69 69 S 8 13 29.96 1015 10 16 0.00 0.00
1:55 am 01:55 Cloudy 68 20 59 15 73 73 Calm 29.94 1014 10 16 0.00 0.00
2:15 am 02:15 Cloudy 68 20 59 15 73 73 ESE 5 7 29.93 1014 10 16 0.00 0.00
2:35 am 02:35 Mostly Cloudy with Light Rain 68 20 61 16 78 78 Calm 29.93 1014 7 11 0.00 0.00
2:55 am 02:55 Cloudy 66 19 61 16 83 83 S 3 6 29.94 1014 10 16 0.00 0.00
3:15 am 03:15 Cloudy with Light Rain 64 18 61 16 88 88 Calm 29.92 1013 5 8 0.00 0.00
3:35 am 03:35 Cloudy with Light Rain 64 18 63 17 94 94 Calm 29.91 1013 5 8 0.00 0.00
3:55 am 03:55 Cloudy with Light Rain 61 16 59 15 94 94 NNE 14 22 29.84 1011 5 8 0.15 3.81
4:15 am 04:15 Partly Cloudy 61 16 59 15 94 94 SSE 9 15 29.88 1012 10 16 0.00 0.00
4:35 am 04:35 Mostly Cloudy 61 16 59 15 94 94 W 5 7 29.89 1012 10 16 0.00 0.00
4:55 am 04:55 Cloudy 61 16 59 15 94 94 Calm 29.88 1012 10 16 0.00 0.00
5:15 am 05:15 Mostly Cloudy 61 16 59 15 94 94 W 6 9 29.90 1013 10 16 0.00 0.00
5:35 am 05:35 Mostly Clear 61 16 59 15 94 94 W 6 9 29.91 1013 10 16 0.00 0.00
5:55 am 05:55 Clear 59 15 59 15 100 100 Calm 29.93 1013 10 16 0.00 0.00
6:15 am 06:15 Clear 59 15 59 15 100 100 Calm 29.94 1014 10 16 0.00 0.00
6:35 am 06:35 Partly Cloudy 59 15 59 15 100 100 Calm 29.94 1014 10 16 0.00 0.00
6:55 am 06:55 Cloudy 59 15 59 15 100 100 Calm 29.94 1014 10 16 0.00 0.00
7:15 am 07:15 Partly Cloudy 59 15 59 15 100 100 Calm 29.94 1014 10 16 0.00 0.00
7:35 am 07:35 Sunny 59 15 59 15 100 100 Calm 29.95 1014 10 16 0.00 0.00
7:55 am 07:55 Sunny 59 15 57 14 94 94 Calm 29.96 1014 9 14 0.00 0.00
8:15 am 08:15 Sunny 59 15 59 15 100 100 Calm 29.97 1015 10 16 0.00 0.00
8:35 am 08:35 Sunny 59 15 59 15 100 100 Calm 29.98 1015 10 16 0.00 0.00
8:55 am 08:55 Mostly Cloudy 61 16 59 15 94 94 W 3 6 29.97 1015 10 16 0.00 0.00
9:15 am 09:15 Cloudy 61 16 59 15 94 94 Calm 29.98 1015 10 16 0.00 0.00
9:35 am 09:35 Cloudy 61 16 59 15 94 94 Calm 29.99 1016 10 16 0.00 0.00
9:55 am 09:55 Cloudy 63 17 59 15 88 88 W 3 6 29.99 1016 9 14 0.00 0.00
10:15 am 10:15 Cloudy 61 16 61 16 100 100 W 3 6 29.99 1016 8 13 0.00 0.00
10:35 am 10:35 Cloudy 63 17 61 16 94 94 VRB 6 9 30.01 1016 9 14 0.00 0.00
10:55 am 10:55 Cloudy 59 15 55 13 88 88 NNW 8 13 30.04 1017 10 16 0.00 0.00
11:15 am 11:15 Cloudy 59 15 55 13 88 88 VRB 6 9 30.04 1017 10 16 0.00 0.00
11:35 am 11:35 Cloudy 61 16 54 12 77 77 VRB 3 6 30.04 1017 10 16 0.00 0.00
11:55 am 11:55 Cloudy 61 16 54 12 77 77 VRB 5 7 30.04 1017 10 16 0.00 0.00
12:15 pm 12:15 Partly Cloudy 63 17 54 12 73 73 NNE 8 13 30.04 1017 10 16 0.00 0.00
12:35 pm 12:35 Mostly Sunny 64 18 54 12 68 68 NW 8 13 30.04 1017 10 16 0.00 0.00
12:55 pm 12:55 Mostly Sunny 66 19 55 13 68 68 VRB 6 9 30.03 1017 10 16 0.00 0.00
1:15 pm 13:15 Mostly Cloudy 64 18 54 12 68 68 VRB 3 6 30.04 1017 10 16 0.00 0.00
1:35 pm 13:35 Cloudy 68 20 55 13 64 64 VRB 8 13 30.03 1017 10 16 0.00 0.00
1:55 pm 13:55 Mostly Cloudy 68 20 54 12 60 60 WNW 9 15 30.02 1017 10 16 0.00 0.00
2:15 pm 14:15 Partly Cloudy 68 20 54 12 60 60 WNW 8 13 30.03 1017 10 16 0.00 0.00
2:35 pm 14:35 Mostly Sunny 68 20 50 10 53 53 WNW 12 19 30.03 1017 10 16 0.00 0.00
2:55 pm 14:55 Sunny 70 21 48 9 46 46 WNW 8 13 30.02 1017 10 16 0.00 0.00
3:15 pm 15:15 Sunny 70 21 46 8 43 43 WNW 8 13 30.02 1017 10 16 0.00 0.00
3:35 pm 15:35 Sunny 72 22 41 5 33 33 WNW 8 13 30.02 1016 10 16 0.00 0.00
3:55 pm 15:55 Sunny 72 22 37 3 29 29 WNW 8 13 30.01 1016 10 16 0.00 0.00
4:15 pm 16:15 Sunny 72 22 41 5 33 33 VRB 7 11 30.01 1016 10 16 0.00 0.00
4:35 pm 16:35 Sunny 72 22 37 3 29 29 W 12 19 30.01 1016 10 16 0.00 0.00
4:55 pm 16:55 Sunny 72 22 39 4 31 31 VRB 5 7 30.01 1016 10 16 0.00 0.00
5:15 pm 17:15 Sunny 72 22 37 3 29 29 NNW 8 13 30.01 1016 10 16 0.00 0.00
5:35 pm 17:35 Sunny 72 22 30 -1 22 22 VRB 7 11 30.02 1016 10 16 0.00 0.00
5:55 pm 17:55 Sunny 72 22 34 1 25 25 VRB 5 7 30.02 1016 10 16 0.00 0.00
6:15 pm 18:15 Sunny 72 22 36 2 27 27 VRB 7 11 30.02 1016 10 16 0.00 0.00
6:35 pm 18:35 Sunny 70 21 36 2 29 29 N 9 15 30.02 1017 10 16 0.00 0.00
6:55 pm 18:55 Sunny 70 21 37 3 31 31 NNE 8 13 30.02 1017 10 16 0.00 0.00
7:15 pm 19:15 Sunny 70 21 37 3 31 31 VRB 7 11 30.02 1017 10 16 0.00 0.00
7:35 pm 19:35 Sunny 68 20 39 4 35 35 NNE 8 13 30.02 1017 10 16 0.00 0.00
7:55 pm 19:55 Sunny 66 19 39 4 37 37 N 5 7 30.03 1017 10 16 0.00 0.00
8:15 pm 20:15 Clear 66 19 39 4 37 37 Calm 30.04 1017 10 16 0.00 0.00
8:35 pm 20:35 Mostly Clear 64 18 39 4 40 40 Calm 30.06 1018 10 16 0.00 0.00
8:55 pm 20:55 Partly Cloudy 64 18 41 5 43 43 Calm 30.06 1018 10 16 0.00 0.00
9:15 pm 21:15 Mostly Clear 63 17 37 3 39 39 Calm 30.07 1018 10 16 0.00 0.00
9:35 pm 21:35 Mostly Clear 63 17 37 3 39 39 Calm 30.09 1019 10 16 0.00 0.00
9:55 pm 21:55 Clear 61 16 36 2 39 39 Calm 30.10 1019 10 16 0.00 0.00
10:15 pm 22:15 Clear 61 16 36 2 39 39 VRB 3 6 30.11 1020 10 16 0.00 0.00
10:35 pm 22:35 Clear 61 16 36 2 39 39 VRB 5 7 30.11 1020 10 16 0.00 0.00
10:55 pm 22:55 Clear 57 14 36 2 44 44 Calm 30.13 1020 10 16 0.00 0.00
11:15 pm 23:15 Clear 57 14 37 3 48 48 Calm 30.14 1021 10 16 0.00 0.00
11:35 pm 23:35 Clear 55 13 37 3 51 51 Calm 30.14 1021 10 16 0.00 0.00
11:55 pm 23:55 Clear 55 13 37 3 51 51 Calm 30.14 1021 10 16 0.00 0.00

Powered by AerisWeather